{"data":{"norad_id":52605,"epoch":"2026-09-20T03:47:00.807072Z","epoch_age_seconds":92845,"freshness":"FRESH","line1":"1 52605U 22052H   26263.15764823 -.00001162  00000+0 -23264-4 0  9996","line2":"2 52605  53.1610 116.9924 0001447  84.2479 275.8688 15.34381144240338","mean_motion":15.34381144,"eccentricity":0.0001447,"inclination_deg":53.161,"raan_deg":116.9924,"arg_perigee_deg":84.2479,"mean_anomaly_deg":275.8688,"bstar":-2.3264e-5,"rev_number":24033,"period_min":93.84891137583,"perigee_km":461.76940709436,"apogee_km":463.74916247917,"semimajor_km":6840.8962847868,"source":"CELESTRAK","updated_at":"2026-09-20T09:00:40.068824Z"}}